Hourly Weather Bolshie Shali

Today, 20 June, Sunday

Time Temperature Precipitation Wind Pressure Humidity
00:00 +19°C° 0 mm 3 mps 747 mmHg 86%
01:00 +18°C° 0 mm 3 mps 747 mmHg 88%
02:00 +17°C° 0 mm 3 mps 747 mmHg 91%
03:00 +17°C° 0 mm 2 mps 747 mmHg 93%
04:00 +18°C° 0 mm 2 mps 747 mmHg 87%
05:00 +20°C° 0 mm 3 mps 747 mmHg 81%
06:00 +21°C° 0 mm 3 mps 747 mmHg 75%
07:00 +24°C° 0 mm 3 mps 748 mmHg 69%
08:00 +26°C° 0 mm 2 mps 748 mmHg 63%
09:00 +27°C° 0 mm 2 mps 748 mmHg 57%
10:00 +28°C° 0 mm 2 mps 748 mmHg 55%
11:00 +29°C° 0 mm 2 mps 748 mmHg 52%
12:00 +30°C° 0 mm 2 mps 748 mmHg 49%
13:00 +30°C° 0 mm 2 mps 748 mmHg 49%
14:00 +30°C° 0 mm 2 mps 748 mmHg 48%
15:00 +30°C° 0 mm 3 mps 748 mmHg 49%
16:00 +30°C° 0 mm 2 mps 747 mmHg 54%
17:00 +29°C° 0 mm 2 mps 747 mmHg 60%
18:00 +28°C° 0 mm 1 mps 747 mmHg 65%
19:00 +27°C° 0 mm 1 mps 747 mmHg 69%
20:00 +25°C° 0 mm 1 mps 747 mmHg 74%
21:00 +24°C° 0 mm 1 mps 747 mmHg 78%
22:00 +23°C° 0.1 mm 2 mps 747 mmHg 81%
23:00 +23°C° 0.1 mm 2 mps 747 mmHg 84%

Tomorrow, 21 June, Monday

Time Temperature Precipitation Wind Pressure Humidity
00:00 +21°C° 0.1 mm 2 mps 747 mmHg 87%
01:00 +21°C° 0 mm 2 mps 748 mmHg 88%
02:00 +21°C° 0 mm 2 mps 748 mmHg 89%
03:00 +22°C° 0 mm 1 mps 748 mmHg 89%
04:00 +21°C° 0 mm 2 mps 748 mmHg 86%
05:00 +23°C° 0 mm 2 mps 748 mmHg 83%
06:00 +23°C° 0 mm 2 mps 748 mmHg 79%
07:00 +25°C° 0 mm 2 mps 748 mmHg 72%
08:00 +27°C° 0 mm 3 mps 748 mmHg 64%
09:00 +29°C° 0 mm 3 mps 748 mmHg 56%
10:00 +30°C° 0 mm 3 mps 748 mmHg 52%
11:00 +31°C° 0 mm 3 mps 748 mmHg 48%
12:00 +33°C° 0 mm 3 mps 748 mmHg 43%
13:00 +33°C° 0 mm 3 mps 748 mmHg 42%
14:00 +33°C° 0 mm 3 mps 748 mmHg 42%
15:00 +33°C° 0 mm 3 mps 747 mmHg 41%
16:00 +31°C° 0 mm 3 mps 747 mmHg 48%
17:00 +30°C° 0 mm 2 mps 747 mmHg 55%
18:00 +29°C° 0 mm 2 mps 747 mmHg 62%
19:00 +27°C° 0 mm 2 mps 747 mmHg 69%
20:00 +26°C° 0 mm 2 mps 747 mmHg 76%
21:00 +24°C° 0 mm 2 mps 747 mmHg 83%
22:00 +23°C° 0 mm 2 mps 748 mmHg 85%
23:00 +23°C° 0 mm 2 mps 748 mmHg 87%

Day after tomorrow, 22 June, Tuesday

Time Temperature Precipitation Wind Pressure Humidity
00:00 +21°C° 0 mm 2 mps 748 mmHg 90%
01:00 +21°C° 0 mm 2 mps 748 mmHg 89%
02:00 +20°C° 0 mm 2 mps 748 mmHg 88%
03:00 +20°C° 0 mm 2 mps 748 mmHg 88%
04:00 +21°C° 0 mm 2 mps 748 mmHg 83%
05:00 +23°C° 0 mm 2 mps 748 mmHg 78%
06:00 +24°C° 0 mm 2 mps 748 mmHg 73%
07:00 +26°C° 0 mm 2 mps 748 mmHg 67%
08:00 +28°C° 0 mm 3 mps 748 mmHg 60%
09:00 +30°C° 0 mm 3 mps 748 mmHg 53%
10:00 +31°C° 0 mm 3 mps 748 mmHg 49%
11:00 +33°C° 0 mm 3 mps 748 mmHg 45%
12:00 +34°C° 0 mm 3 mps 748 mmHg 41%
13:00 +34°C° 0 mm 3 mps 748 mmHg 40%
14:00 +34°C° 0 mm 3 mps 748 mmHg 39%
15:00 +34°C° 0 mm 3 mps 748 mmHg 38%
16:00 +32°C° 0 mm 2 mps 748 mmHg 44%
17:00 +31°C° 0 mm 2 mps 748 mmHg 51%
18:00 +29°C° 0 mm 2 mps 748 mmHg 58%
19:00 +28°C° 0 mm 2 mps 748 mmHg 65%
20:00 +26°C° 0 mm 2 mps 748 mmHg 72%
21:00 +24°C° 0 mm 1 mps 748 mmHg 79%
22:00 +23°C° 0 mm 1 mps 748 mmHg 82%
23:00 +23°C° 0 mm 1 mps 748 mmHg 85%

23 June, Wednesday

Time Temperature Precipitation Wind Pressure Humidity
00:00 +22°C° 0 mm 1 mps 748 mmHg 87%
01:00 +22°C° 0 mm 1 mps 748 mmHg 87%
02:00 +21°C° 0 mm 1 mps 748 mmHg 86%
03:00 +20°C° 0 mm 2 mps 748 mmHg 85%
04:00 +21°C° 0 mm 2 mps 748 mmHg 80%
05:00 +23°C° 0 mm 2 mps 748 mmHg 75%
06:00 +25°C° 0 mm 2 mps 748 mmHg 70%
07:00 +26°C° 0 mm 2 mps 748 mmHg 64%
08:00 +28°C° 0 mm 2 mps 748 mmHg 58%
09:00 +30°C° 0 mm 2 mps 748 mmHg 51%
10:00 +31°C° 0 mm 3 mps 748 mmHg 47%
11:00 +33°C° 0 mm 3 mps 748 mmHg 43%
12:00 +34°C° 0 mm 3 mps 748 mmHg 40%
13:00 +34°C° 0 mm 3 mps 748 mmHg 40%
14:00 +34°C° 0 mm 3 mps 748 mmHg 41%
15:00 +34°C° 0 mm 2 mps 748 mmHg 42%
16:00 +31°C° 0.1 mm 2 mps 748 mmHg 49%
17:00 +30°C° 0.1 mm 2 mps 747 mmHg 57%
18:00 +29°C° 0.1 mm 2 mps 747 mmHg 64%
19:00 +27°C° 0.4 mm 2 mps 747 mmHg 71%
20:00 +25°C° 0.4 mm 2 mps 747 mmHg 78%
21:00 +23°C° 0.4 mm 2 mps 748 mmHg 85%
22:00 +21°C° 0.1 mm 2 mps 747 mmHg 86%
23:00 +22°C° 0.1 mm 1 mps 747 mmHg 87%

24 June, Thursday

Time Temperature Precipitation Wind Pressure Humidity
00:00 +22°C° 0.1 mm 1 mps 747 mmHg 88%
01:00 +22°C° 0.1 mm 1 mps 747 mmHg 88%
02:00 +22°C° 0.1 mm 1 mps 747 mmHg 89%
03:00 +21°C° 0.1 mm 1 mps 747 mmHg 90%
04:00 +22°C° 0 mm 1 mps 747 mmHg 87%
05:00 +24°C° 0 mm 1 mps 747 mmHg 84%
06:00 +25°C° 0 mm 1 mps 747 mmHg 81%
07:00 +27°C° 0 mm 1 mps 747 mmHg 72%
08:00 +28°C° 0 mm 1 mps 747 mmHg 63%
09:00 +30°C° 0 mm 2 mps 747 mmHg 54%
10:00 +31°C° 0 mm 2 mps 747 mmHg 49%
11:00 +32°C° 0 mm 2 mps 747 mmHg 44%
12:00 +34°C° 0 mm 2 mps 747 mmHg 40%
13:00 +35°C° 0 mm 2 mps 746 mmHg 40%
14:00 +35°C° 0 mm 3 mps 746 mmHg 40%
15:00 +35°C° 0 mm 3 mps 746 mmHg 40%
16:00 +34°C° 0 mm 3 mps 746 mmHg 45%
17:00 +33°C° 0 mm 3 mps 746 mmHg 50%
18:00 +31°C° 0 mm 2 mps 745 mmHg 55%
19:00 +29°C° 0 mm 2 mps 745 mmHg 62%
20:00 +27°C° 0 mm 1 mps 745 mmHg 68%
21:00 +25°C° 0 mm 1 mps 745 mmHg 74%
22:00 +24°C° 0 mm 1 mps 745 mmHg 75%
23:00 +24°C° 0 mm 1 mps 745 mmHg 76%

25 June, Friday

Time Temperature Precipitation Wind Pressure Humidity
00:00 +23°C° 0 mm 1 mps 745 mmHg 76%
01:00 +23°C° 0 mm 1 mps 745 mmHg 78%
02:00 +23°C° 0 mm 1 mps 744 mmHg 79%
03:00 +21°C° 0 mm 2 mps 744 mmHg 80%
04:00 +23°C° 0 mm 2 mps 744 mmHg 78%
05:00 +24°C° 0 mm 2 mps 744 mmHg 76%
06:00 +25°C° 0 mm 2 mps 744 mmHg 73%
07:00 +27°C° 0 mm 2 mps 744 mmHg 66%
08:00 +29°C° 0 mm 2 mps 744 mmHg 59%
09:00 +31°C° 0 mm 2 mps 744 mmHg 52%
10:00 +33°C° 0 mm 3 mps 744 mmHg 49%
11:00 +34°C° 0 mm 3 mps 744 mmHg 45%
12:00 +35°C° 0 mm 4 mps 744 mmHg 42%
13:00 +35°C° 0 mm 4 mps 744 mmHg 42%
14:00 +35°C° 0 mm 4 mps 744 mmHg 42%
15:00 +35°C° 0 mm 4 mps 743 mmHg 42%
16:00 +34°C° 0 mm 3 mps 743 mmHg 47%
17:00 +32°C° 0 mm 2 mps 743 mmHg 51%
18:00 +31°C° 0 mm 2 mps 742 mmHg 55%
19:00 +29°C° 0 mm 2 mps 742 mmHg 62%
20:00 +27°C° 0 mm 2 mps 742 mmHg 69%
21:00 +25°C° 0 mm 2 mps 742 mmHg 76%
22:00 +25°C° 0 mm 2 mps 742 mmHg 77%
23:00 +24°C° 0 mm 2 mps 742 mmHg 79%
Show more